User: anonymous
Location: Caltech
(34.1382°N, 118.1253°W)
Time: 21:47:53
(UTC-07:00)
Language:

Oscar 16 - Orbit

View from above orbital plane
View from above orbital plane
View from above satellite
View from above satellite

Ground track
Ground track

The orbit data is extracted from the following two-line orbital elements,

1 20439U 90005D   14293.83926347  .00000300  00000-0  12666-3 0  1532
2 20439 098.5172 228.8589 0011716 143.9165 281.9430 14.32407201292474
Epoch (UTC): 20 October 2014 20:08:32
Eccentricity: 0.0011716
inclination: 98.5172°
perigee height: 775 km
apogee height: 792 km
right ascension of ascending node: 228.8589°
argument of perigee: 143.9165°
revolutions per day: 14.32407201
mean anomaly at epoch: 281.9430°
orbit number at epoch: 29247

The dashed part of the orbit path shows where the satellite is in the earth's shadow,  

DLR